Location: Unspecified
(0.0000°N, 0.0000°E)
Time: 15:47:50
(UTC+00:00)

Vanguard 2 Rocket - Pass Details

Date: 08 December 2017
Orbit: 553 x 3327 km, 32.9° (Epoch: 16 July)

Event Time Altitude Azimuth Distance (km) Brightness Sun altitude
Exits shadow 05:18:32 - 303° (WNW) 5,517 10.2 -7.7°
Reaches altitude 10° 05:19:45 10° 303° (WNW) 5,169 10.1 -7.4°
Maximum altitude 05:33:28 81° 217° (SW) 1,606 8.2 -4.2°
Drops below altitude 10° 05:40:52 10° 129° (SE) 2,943 11.1 -2.5°
Sets 05:42:59 0° 128° (SE) 3,658 11.9 -2.1°
